Flag for Spain Weather past 2 weeks in Linares, Spain

Now
61 °F

Passing clouds.


Feels Like: 61 °F
Forecast: 39 / 61 °F
Wind: 14 mph from Northeast

Location: Granada / Aeropuerto

Current Time: Mar 4, 2015 at 9:43:56 PM

Latest Report: Mar 4, 2015 at 9:00 PM


Visibility: N/A

Pressure: 30.33 "Hg

Humidity: 42%

Dew point: 37 °F

Location of LinaresLocation

Historic Weather in Linares — Graph

°F

Linares temperature yesterday

Maximum temperature yesterday: 75 °F (at 3:30 PM)
Minimum temperature yesterday: 41 °F (at 8:00 AM)
Average temperature yesterday: 60 °F

Past Weeks' High & Low Weather Summary

 TemperatureHumidityPressure
High79 °F (Mar 2, 4:00 PM)100% (Feb 20, 6:00 AM)30.45 "Hg (Feb 20, 6:00 AM)
Low30 °F (Feb 20, 6:00 AM)29% (Feb 25, 3:30 PM)29.83 "Hg (Feb 21, 2:30 PM)
Average52 °F68%30.22 "Hg
* Reported Feb 17 8:00 PM — Mar 4 8:30 PM, Linares, Weather by CustomWeather, © 2015

Note: Actual official high and low records may vary slightly from our data, if they occured in-between our weather recording intervals... More about our weather records

Advertising

Linares weather history for previous 24 hours

 ConditionsComfort  
Time TempWeatherWind HumidityBarometerVisibility
8:30 PM
Wed, Mar 4
63 °FPassing clouds.12 mph39%30.33 "HgN/A
8:00 PM64 °FPassing clouds.12 mph40%30.30 "HgN/A
7:30 PM66 °FPassing clouds.12 mph40%30.30 "HgN/A
7:00 PM66 °FPassing clouds.10 mph43%30.30 "HgN/A
6:30 PM70 °FPassing clouds.10 mph35%30.27 "HgN/A
6:00 PM72 °FPassing clouds.9 mph33%30.27 "HgN/A
5:30 PM72 °FPassing clouds.12 mph33%30.27 "HgN/A
5:00 PM73 °FPassing clouds.9 mph33%30.27 "HgN/A
4:30 PM73 °FPassing clouds.3 mph38%30.27 "HgN/A
4:00 PM73 °FPassing clouds.3 mph44%30.27 "HgN/A
3:30 PM73 °FPassing clouds.6 mph44%30.27 "HgN/A
3:00 PM72 °FPassing clouds.6 mph47%30.27 "HgN/A
2:30 PM70 °FPassing clouds.3 mph53%30.27 "HgN/A
2:00 PM66 °FPassing clouds.3 mph60%30.30 "HgN/A
1:30 PM64 °FSunny.2 mph64%30.30 "Hg10 mi
1:00 PM61 °FSunny.2 mph77%30.33 "Hg10 mi
12:30 PM59 °FPassing clouds.1 mph77%30.33 "Hg4 mi
12:00 PM57 °FFog.1 mph82%30.33 "Hg3 mi
11:30 AM55 °FFog.1 mph88%30.36 "Hg3 mi
11:00 AM54 °FFog.No wind88%30.36 "Hg3 mi
10:30 AM52 °FFog.No wind88%30.36 "Hg3 mi
10:00 AM50 °FFog.1 mph88%30.36 "Hg3 mi
9:30 AM50 °FFog.No wind94%30.36 "Hg3 mi
9:00 AM50 °FFog.No wind94%30.33 "Hg3 mi
8:30 AM48 °FFog.No wind94%30.33 "Hg3 mi
8:00 AM46 °FFog.No wind100%30.33 "Hg3 mi
7:30 AM48 °FPassing clouds.1 mph94%30.30 "Hg5 mi
7:00 AM46 °FPassing clouds.2 mph100%30.30 "HgN/A
6:30 AM46 °FPassing clouds.1 mph93%30.30 "HgN/A
6:00 AM46 °FPassing clouds.No wind93%30.30 "HgN/A
11:00 PM
Tue, Mar 3
54 °FClear.No wind82%30.30 "Hg10 mi
10:30 PM55 °FClear.7 mph77%30.30 "Hg10 mi
10:00 PM55 °FClear.2 mph77%30.30 "Hg10 mi
9:30 PM59 °FClear.No wind68%30.30 "Hg10 mi
9:00 PM59 °FClear.5 mph68%30.27 "Hg10 mi
Weather by CustomWeather, © 2015

See weather overviewHow to use our weather pages